[[{"header":{"parameterUnit":"m.s-1","parameterCategory":1,"la1":30.2991,"la2":30.254,"lo1":-89.0895,"lo2":-89.0444,"dy":0.0017,"dx":0.0017,"nx":28,"ny":28,"refTime":"2024-12-02T03:00:00:Z","depth":0,"parameterNumber":2,"parameterNumberName":"U-component_of_WINDS"},"data":[0,0,0,0,0,0,0,0,0,0,0,0,0,0,0,0,0,0,0,0,0,0,0,0,0,0,0,0,0,0,0,0,0,0,0,0,0,0,0,0,0,0,0,0,0,0,0,0,0,0,0,0,0,0,0,0,0,0,-0.5889,-0.589,0,-0.5912,-0.5912,-0.5913,-0.5895,-0.5894,-0.5893,-0.5892,-0.5917,-0.5918,-0.5919,0,0,0,0,0,0,0,0,0,0,0,0,0,-0.5831,-0.5832,-0.5889,-0.589,-0.589,-0.5912,-0.5912,-0.5913,-0.5895,-0.5894,-0.5893,-0.5892,-0.5916,-0.5918,-0.5919,0,0,0,0,0,0,0,0,0,0,0,0,0,-0.5855,-0.5832,-0.5889,-0.5884,-0.5883,-0.5912,-0.5912,-0.5913,-0.5895,-0.5894,-0.5893,-0.5892,-0.5916,-0.5918,-0.592,-0.5955,0,0,-0.5926,-0.5927,0,0,0,0,0,0,0,0,-0.5854,-0.5857,-0.5884,-0.5884,-0.5884,-0.5899,-0.59,-0.5927,-0.5895,-0.5891,-0.5892,-0.5891,-0.5912,-0.5914,-0.5921,-0.5957,-0.5958,-0.5926,-0.5927,-0.5928,-0.5929,0,0,0,0,0,0,0,-0.5852,-0.5856,-0.5898,-0.5885,-0.5884,-0.588,-0.5882,-0.5905,-0.5908,-0.5891,-0.589,-0.5893,-0.5912,-0.5919,-0.5921,-0.5958,-0.5926,-0.5928,-0.5929,-0.593,-0.6022,-0.6023,0,0,0,0,0,0,-0.5851,-0.5855,-0.5898,-0.5899,-0.5866,-0.5882,-0.5884,-0.5896,-0.5907,-0.5908,-0.5894,-0.5892,-0.5916,-0.5919,-0.5922,-0.5964,-0.5928,-0.593,-0.5931,-0.6021,-0.6023,-0.6024,0,0,0,0,0,0,-0.585,-0.5855,-0.5897,-0.5877,-0.5882,-0.5884,-0.5897,-0.5897,-0.5904,-0.5909,-0.5909,-0.5901,-0.5915,-0.5919,-0.5947,-0.5965,-0.5931,-0.5933,-0.602,-0.6022,-0.6023,-0.6048,0,0,0,0,0,0,-0.5848,-0.5854,-0.5868,-0.5877,-0.5883,-0.5921,-0.5898,-0.5898,-0.5908,-0.5905,-0.5916,-0.5917,-0.5915,-0.5944,-0.5949,-0.5967,-0.5935,-0.6018,-0.602,-0.6023,-0.6046,-0.6051,-0.6055,0,0,0,0,0,-0.5846,-0.5875,-0.5869,-0.5874,-0.59,-0.5922,-0.5926,-0.5922,-0.5909,-0.5923,-0.5926,-0.5916,-0.5962,-0.5947,-0.5952,-0.5971,-0.6017,-0.602,-0.6022,-0.6044,-0.605,-0.6055,0,0,0,0,0,0,-0.5869,-0.5876,-0.587,-0.5902,-0.5912,-0.5919,-0.5937,-0.5929,-0.5943,-0.594,-0.5936,-0.5938,-0.5967,-0.5972,-0.5955,-0.6005,-0.5987,-0.5991,-0.6002,-0.6007,-0.6012,-0.601,-0.5936,0,0,0,0,0,-0.5878,-0.5895,-0.59,-0.5929,-0.5934,-0.5934,-0.5944,-0.594,-0.595,-0.5954,-0.5959,-0.5969,-0.5986,-0.5997,-0.6012,-0.6046,-0.6048,-0.6062,-0.6066,-0.607,-0.6073,-0.6091,-0.6097,-0.6033,-0.6033,-0.6033,0,0,-0.5897,-0.5903,-0.5914,-0.5934,-0.5941,-0.5958,-0.5938,-0.5958,-0.5971,-0.5958,-0.5984,-0.5987,-0.5998,-0.6029,-0.6043,-0.6034,-0.6091,-0.6073,-0.6076,-0.6078,-0.6094,-0.61,-0.6106,-0.6035,-0.6034,-0.6034,0,0,-0.594,-0.5946,-0.597,-0.5977,-0.5987,-0.5987,-0.5993,-0.6001,-0.6003,-0.6028,-0.6018,-0.6033,-0.6062,-0.607,-0.6077,-0.6121,-0.6113,-0.6126,-0.615,-0.6167,-0.6172,-0.6177,-0.6192,-0.6197,-0.613,-0.613,-0.613,0,-0.5962,-0.5988,-0.5983,-0.6004,-0.6012,-0.6,-0.6023,-0.603,-0.6045,-0.6052,-0.6041,-0.6075,-0.6082,-0.6114,-0.6124,-0.6131,-0.6137,-0.6126,-0.6172,-0.6176,-0.618,-0.6195,-0.62,-0.6131,-0.6131,-0.6131,-0.6131,0,-0.6015,-0.6033,-0.6051,-0.6065,-0.6075,-0.6098,-0.6095,-0.6107,-0.6102,-0.6103,-0.6128,-0.6135,-0.6151,-0.6158,-0.6154,-0.6189,-0.6183,-0.6172,-0.6154,-0.6188,-0.6201,-0.6207,-0.6134,-0.6133,-0.6133,-0.6132,0,0,-0.6075,-0.6084,-0.6091,-0.6096,-0.6106,-0.612,-0.6141,-0.6155,-0.6165,-0.6175,-0.6192,-0.6216,-0.6205,-0.6214,-0.621,-0.6225,-0.6258,-0.6212,-0.6212,-0.622,-0.6296,-0.6305,-0.6311,-0.6253,-0.6254,-0.6254,-0.6295,0,-0.6118,-0.6154,-0.6149,-0.6184,-0.62,-0.6188,-0.6206,-0.6213,-0.6214,-0.6228,-0.6229,-0.6245,-0.6231,-0.6235,-0.6249,-0.6251,-0.6274,-0.6248,-0.6268,-0.6269,-0.6266,-0.6318,-0.6327,-0.6366,-0.6301,-0.6302,-0.6302,0,-0.6174,-0.6185,-0.6221,-0.6226,-0.6233,-0.625,-0.6262,-0.6276,-0.6283,-0.6283,-0.6292,-0.6285,-0.6305,-0.6286,-0.6314,-0.6296,-0.6304,-0.6306,-0.6308,-0.631,-0.6288,-0.6322,-0.6378,-0.6384,-0.631,-0.631,-0.6309,0,-0.6214,-0.6238,-0.6262,-0.6267,-0.6274,-0.6286,-0.6289,-0.6296,-0.6305,-0.6315,-0.6321,-0.6334,-0.6342,-0.6352,-0.6348,-0.6335,-0.6377,-0.6357,-0.6377,-0.6377,-0.6387,-0.6386,-0.6445,-0.6392,-0.6392,-0.6391,-0.6391,0,-0.6263,-0.6285,-0.628,-0.6295,-0.6319,-0.6313,-0.6337,-0.6339,-0.6345,-0.636,-0.6349,-0.6364,-0.6358,-0.6372,-0.637,-0.6392,-0.6396,-0.6396,-0.6395,-0.6397,-0.6397,-0.6402,-0.64,-0.6393,-0.6393,-0.6392,-0.6392,0,-0.6312,-0.6309,-0.6334,-0.6338,-0.634,-0.6357,-0.6361,-0.6374,-0.6374,-0.6393,-0.6397,-0.6396,-0.6411,-0.6409,-0.6426,-0.6424,-0.6453,-0.6449,-0.645,-0.6449,-0.6469,-0.6467,-0.6533,-0.6541,-0.6483,-0.6483,-0.6484,0,-0.6343,-0.636,-0.6365,-0.6374,-0.6378,-0.6393,-0.6401,-0.6395,-0.6404,-0.6413,-0.6426,-0.644,-0.6451,-0.6477,-0.6478,-0.649,-0.6487,-0.6509,-0.6489,-0.6489,-0.6487,-0.6486,-0.6487,-0.6513,-0.6514,-0.6514,-0.6515,0,-0.64,-0.6397,-0.6409,-0.642,-0.643,-0.6439,-0.6447,-0.6455,-0.645,-0.646,-0.6476,-0.6484,-0.6501,-0.6515,-0.6527,-0.653,-0.6522,-0.6521,-0.6526,-0.6528,-0.6528,-0.6528,-0.6461,-0.652,-0.6519,-0.6519,-0.6519,-0.6518,-0.6441,-0.6454,-0.646,-0.6473,-0.6478,-0.6485,-0.6498,-0.6498,-0.6511,-0.6524,-0.6519,-0.6536,-0.6542,-0.6557,-0.6561,-0.6575,-0.6566,-0.6574,-0.6576,-0.6578,-0.658,-0.6526,-0.6577,-0.6577,-0.6577,-0.6576,-0.6576,0,-0.6496,-0.6498,-0.6511,-0.6521,-0.6532,-0.6522,-0.6529,-0.6539,-0.6554,-0.656,-0.657,-0.6587,-0.6601,-0.6602,-0.6614,-0.6624,-0.6621,-0.6628,-0.6627,-0.6628,-0.6587,-0.6581,-0.6631,-0.6631,-0.6631,-0.6631,-0.6631,-0.6631,-0.6526,-0.6549,-0.6546,-0.6571,-0.6573,-0.6589,-0.6594,-0.66,-0.6605,-0.6624,-0.6634,-0.6635,-0.6639,-0.6651,-0.6662,-0.6662,-0.6667,-0.6676,-0.6674,-0.6636,-0.6631,-0.6626,-0.662,-0.6677,-0.6677,-0.6714,-0.6714,-0.6715]},{"header":{"parameterUnit":"m.s-1","parameterCategory":1,"la1":30.2991,"la2":30.254,"lo1":-89.0895,"lo2":-89.0444,"dy":0.0017,"dx":0.0017,"nx":28,"ny":28,"refTime":"2024-12-02T03:00:00:Z","depth":0,"parameterNumber":3,"parameterNumberName":"V-component_of_WINDS"},"data":[0,0,0,0,0,0,0,0,0,0,0,0,0,0,0,0,0,0,0,0,0,0,0,0,0,0,0,0,0,0,0,0,0,0,0,0,0,0,0,0,0,0,0,0,0,0,0,0,0,0,0,0,0,0,0,0,0,0,-3.4121,-3.4122,0,-3.4211,-3.4212,-3.4213,-3.4186,-3.4184,-3.4182,-3.418,-3.4269,-3.4273,-3.4277,0,0,0,0,0,0,0,0,0,0,0,0,0,-3.392,-3.3924,-3.412,-3.4122,-3.4123,-3.4211,-3.4212,-3.4213,-3.4186,-3.4184,-3.4181,-3.4179,-3.4267,-3.4272,-3.4277,0,0,0,0,0,0,0,0,0,0,0,0,0,-3.4009,-3.3926,-3.412,-3.412,-3.4121,-3.421,-3.4212,-3.4213,-3.4186,-3.4184,-3.4181,-3.4178,-3.4266,-3.4272,-3.4278,-3.4372,0,0,-3.4297,-3.4299,0,0,0,0,0,0,0,0,-3.4004,-3.4016,-3.4119,-3.412,-3.4121,-3.4184,-3.4174,-3.4267,-3.4187,-3.4161,-3.418,-3.4177,-3.4243,-3.425,-3.4273,-3.4376,-3.438,-3.4297,-3.4301,-3.4304,-3.4305,0,0,0,0,0,0,0,-3.3998,-3.4012,-3.4156,-3.412,-3.4122,-3.4114,-3.4123,-3.4191,-3.4216,-3.4163,-3.4162,-3.4173,-3.4243,-3.4268,-3.4275,-3.4381,-3.4297,-3.4302,-3.4306,-3.4309,-3.4565,-3.4568,0,0,0,0,0,0,-3.3991,-3.4007,-3.4153,-3.4159,-3.4054,-3.412,-3.413,-3.4167,-3.4216,-3.4221,-3.4175,-3.4171,-3.4258,-3.4268,-3.4278,-3.4391,-3.4303,-3.4309,-3.4313,-3.4562,-3.4565,-3.4569,0,0,0,0,0,0,-3.3987,-3.4005,-3.415,-3.4083,-3.41,-3.4126,-3.4167,-3.417,-3.4195,-3.4225,-3.4229,-3.4196,-3.4257,-3.427,-3.4349,-3.4394,-3.4312,-3.4318,-3.4558,-3.4563,-3.4567,-3.4618,0,0,0,0,0,0,-3.3981,-3.4003,-3.404,-3.4084,-3.4104,-3.422,-3.417,-3.4174,-3.4206,-3.4202,-3.4246,-3.425,-3.4255,-3.434,-3.4355,-3.4401,-3.4322,-3.4554,-3.456,-3.4565,-3.4612,-3.4623,-3.4633,0,0,0,0,0,-3.3974,-3.405,-3.4042,-3.406,-3.4151,-3.4223,-3.4234,-3.424,-3.421,-3.4247,-3.4266,-3.4249,-3.4387,-3.4348,-3.4365,-3.4413,-3.4551,-3.4558,-3.4565,-3.4607,-3.4621,-3.4633,0,0,0,0,0,0,-3.401,-3.4056,-3.4048,-3.414,-3.4178,-3.4218,-3.4265,-3.4255,-3.4301,-3.4295,-3.4299,-3.4309,-3.439,-3.441,-3.4366,-3.4506,-3.4464,-3.4475,-3.449,-3.4504,-3.4514,-3.4507,-3.4328,0,0,0,0,0,-3.403,-3.4085,-3.4121,-3.42,-3.4219,-3.4239,-3.427,-3.4271,-3.431,-3.4325,-3.435,-3.4387,-3.4439,-3.4473,-3.4522,-3.4615,-3.4623,-3.4656,-3.4667,-3.4675,-3.4684,-3.4733,-3.4748,-3.4592,-3.4591,-3.4591,0,0,-3.4069,-3.4101,-3.4135,-3.4208,-3.4237,-3.4293,-3.4252,-3.4313,-3.4355,-3.4334,-3.4411,-3.443,-3.4472,-3.4558,-3.4597,-3.4577,-3.4729,-3.4684,-3.4691,-3.4695,-3.4742,-3.4757,-3.477,-3.4596,-3.4595,-3.4595,0,0,-3.4169,-3.4199,-3.4267,-3.4298,-3.4343,-3.4356,-3.4372,-3.4414,-3.4426,-3.4503,-3.4489,-3.4537,-3.4626,-3.4656,-3.4683,-3.4794,-3.478,-3.481,-3.4865,-3.4913,-3.4925,-3.4936,-3.4974,-3.4988,-3.4819,-3.4819,-3.4819,0,-3.4211,-3.4297,-3.4303,-3.4366,-3.4397,-3.4383,-3.445,-3.4479,-3.4538,-3.4559,-3.4536,-3.4647,-3.4674,-3.4767,-3.4794,-3.4817,-3.4834,-3.4804,-3.4923,-3.4934,-3.4944,-3.4981,-3.4995,-3.4822,-3.4822,-3.4822,-3.4821,0,-3.4346,-3.4405,-3.4455,-3.4513,-3.455,-3.4615,-3.4629,-3.4666,-3.4664,-3.4679,-3.4756,-3.4788,-3.4843,-3.4866,-3.4864,-3.4958,-3.4943,-3.4922,-3.4879,-3.4962,-3.4996,-3.5011,-3.4827,-3.4826,-3.4825,-3.4824,0,0,-3.4471,-3.4532,-3.455,-3.4575,-3.4624,-3.4669,-3.4733,-3.4788,-3.4818,-3.4859,-3.4912,-3.4987,-3.4967,-3.4998,-3.4999,-3.5042,-3.5126,-3.5015,-3.5016,-3.5033,-3.523,-3.5245,-3.5261,-3.5117,-3.512,-3.5122,-3.5226,0,-3.4574,-3.4687,-3.4694,-3.4796,-3.485,-3.4837,-3.4892,-3.4927,-3.4943,-3.4989,-3.5005,-3.5059,-3.5029,-3.5047,-3.5089,-3.5107,-3.5165,-3.51,-3.5164,-3.5166,-3.5153,-3.5279,-3.5295,-3.5392,-3.5239,-3.5241,-3.5243,0,-3.4709,-3.4755,-3.4863,-3.4903,-3.4926,-3.4976,-3.5026,-3.5072,-3.5111,-3.5119,-3.5153,-3.5148,-3.5212,-3.5168,-3.5255,-3.521,-3.5237,-3.525,-3.5253,-3.5258,-3.5209,-3.5286,-3.5422,-3.5436,-3.5265,-3.5263,-3.5261,0,-3.4788,-3.4876,-3.4952,-3.4975,-3.5024,-3.5059,-3.5081,-3.5118,-3.515,-3.5193,-3.5214,-3.5264,-3.5291,-3.533,-3.5338,-3.5306,-3.5424,-3.5381,-3.5431,-3.5431,-3.5455,-3.5454,-3.5597,-3.5475,-3.5475,-3.5475,-3.5474,0,-3.4901,-3.4967,-3.4988,-3.5034,-3.5107,-3.5114,-3.5186,-3.5205,-3.5238,-3.5286,-3.5278,-3.5324,-3.5333,-3.538,-3.5387,-3.5456,-3.5469,-3.5476,-3.5477,-3.5476,-3.5475,-3.5493,-3.5486,-3.5479,-3.5478,-3.5477,-3.5476,0,-3.5001,-3.5018,-3.5099,-3.5139,-3.5151,-3.5203,-3.5237,-3.528,-3.5295,-3.5356,-3.5371,-3.5393,-3.5448,-3.5461,-3.5526,-3.553,-3.5613,-3.5608,-3.56,-3.5599,-3.5647,-3.5642,-3.5806,-3.5827,-3.5693,-3.5694,-3.5695,0,-3.5072,-3.5122,-3.5168,-3.5201,-3.5225,-3.5278,-3.5311,-3.5319,-3.5354,-3.5402,-3.5439,-3.5494,-3.5537,-3.5625,-3.5646,-3.5695,-3.5691,-3.5745,-3.5698,-3.5695,-3.569,-3.5686,-3.569,-3.5753,-3.5754,-3.5755,-3.5756,0,-3.5195,-3.5201,-3.5249,-3.5301,-3.5341,-3.5382,-3.542,-3.5447,-3.5461,-3.55,-3.5557,-3.5591,-3.5657,-3.5711,-3.576,-3.5781,-3.5771,-3.5771,-3.5785,-3.5784,-3.5777,-3.578,-3.5623,-3.5767,-3.5766,-3.5765,-3.5765,-3.5764,-3.5282,-3.5325,-3.5365,-3.5419,-3.5449,-3.5485,-3.5528,-3.5548,-3.5596,-3.5652,-3.5654,-3.5715,-3.5752,-3.5817,-3.5841,-3.5888,-3.5871,-3.5892,-3.5897,-3.5901,-3.5905,-3.5771,-3.5897,-3.5897,-3.5897,-3.5897,-3.5896,0,-3.5403,-3.5428,-3.5478,-3.5533,-3.5575,-3.5563,-3.5605,-3.5641,-3.5695,-3.5731,-3.5775,-3.5839,-3.589,-3.5916,-3.5966,-3.5999,-3.5995,-3.6012,-3.6009,-3.6013,-3.5918,-3.59,-3.6014,-3.6014,-3.6014,-3.6014,-3.6014,-3.6014,-3.5471,-3.5545,-3.5555,-3.5643,-3.5666,-3.5727,-3.5752,-3.5785,-3.5814,-3.5886,-3.5929,-3.5946,-3.5977,-3.603,-3.6076,-3.6082,-3.61,-3.6119,-3.6122,-3.6032,-3.602,-3.6009,-3.5992,-3.6123,-3.6123,-3.6214,-3.6214,-3.6215]}]]